When you browse on this site, cookies collect data to enhance your experience and personalize the content and advertising you see.
Visit our Privacy Policy to learn more. By continuing to use the site, you agree to this use of cookies and data.
  • In Latvia
  • List of Countries
  • For 7 days
  • Water Temperature
  • Satellite Maps
  • Weather Map
  • Weather Widgets
  • user-avatar
    Login

    Hourly Weather Aizkraukle

    Today, 20 July, Saturday

    Time Temperature Precipitation Wind Pressure Humidity
    00:00 +13°C° 0 mm 2 mps 756 mmHg 93%
    01:00 +12°C° 0 mm 2 mps 756 mmHg 95%
    02:00 +12°C° 0 mm 1 mps 757 mmHg 96%
    03:00 +12°C° 0 mm 1 mps 757 mmHg 96%
    04:00 +12°C° 0 mm 1 mps 757 mmHg 96%
    05:00 +12°C° 0 mm 1 mps 757 mmHg 97%
    06:00 +14°C° 0 mm 2 mps 757 mmHg 87%
    07:00 +16°C° 0 mm 2 mps 757 mmHg 78%
    08:00 +18°C° 0 mm 2 mps 757 mmHg 69%
    09:00 +20°C° 0 mm 2 mps 757 mmHg 62%
    10:00 +23°C° 0 mm 2 mps 758 mmHg 54%
    11:00 +24°C° 0 mm 2 mps 758 mmHg 47%
    12:00 +25°C° 0 mm 2 mps 758 mmHg 45%
    13:00 +25°C° 0 mm 2 mps 758 mmHg 43%
    14:00 +26°C° 0 mm 2 mps 757 mmHg 41%
    15:00 +26°C° 0 mm 2 mps 758 mmHg 43%
    16:00 +26°C° 0 mm 2 mps 758 mmHg 45%
    17:00 +25°C° 0 mm 2 mps 758 mmHg 47%
    18:00 +23°C° 0 mm 2 mps 758 mmHg 56%
    19:00 +21°C° 0 mm 1 mps 758 mmHg 65%
    20:00 +20°C° 0 mm 1 mps 758 mmHg 74%
    21:00 +18°C° 0 mm 1 mps 758 mmHg 77%
    22:00 +16°C° 0 mm 1 mps 759 mmHg 80%
    23:00 +14°C° 0 mm 1 mps 759 mmHg 82%

    Tomorrow, 21 July, Sunday

    Time Temperature Precipitation Wind Pressure Humidity
    00:00 +13°C° 0 mm 0 mps 759 mmHg 84%
    01:00 +12°C° 0 mm 0 mps 759 mmHg 86%
    02:00 +12°C° 0 mm 0 mps 759 mmHg 88%
    03:00 +12°C° 0 mm 0 mps 759 mmHg 87%
    04:00 +12°C° 0 mm 0 mps 759 mmHg 87%
    05:00 +12°C° 0 mm 0 mps 759 mmHg 87%
    06:00 +15°C° 0 mm 0 mps 759 mmHg 79%
    07:00 +19°C° 0 mm 1 mps 759 mmHg 71%
    08:00 +21°C° 0 mm 1 mps 759 mmHg 64%
    09:00 +23°C° 0 mm 1 mps 759 mmHg 58%
    10:00 +24°C° 0 mm 1 mps 759 mmHg 52%
    11:00 +26°C° 0 mm 1 mps 759 mmHg 46%
    12:00 +27°C° 0 mm 1 mps 758 mmHg 43%
    13:00 +27°C° 0 mm 1 mps 758 mmHg 41%
    14:00 +28°C° 0 mm 2 mps 758 mmHg 39%
    15:00 +28°C° 0 mm 1 mps 758 mmHg 41%
    16:00 +28°C° 0 mm 1 mps 758 mmHg 43%
    17:00 +28°C° 0 mm 1 mps 757 mmHg 45%
    18:00 +26°C° 0 mm 1 mps 757 mmHg 55%
    19:00 +24°C° 0 mm 1 mps 757 mmHg 65%
    20:00 +22°C° 0 mm 1 mps 757 mmHg 76%
    21:00 +21°C° 0.1 mm 1 mps 757 mmHg 79%
    22:00 +19°C° 0.1 mm 2 mps 757 mmHg 82%
    23:00 +18°C° 0.1 mm 2 mps 757 mmHg 86%

    Day after tomorrow, 22 July, Monday

    Time Temperature Precipitation Wind Pressure Humidity
    00:00 +19°C° 0.4 mm 1 mps 757 mmHg 88%
    01:00 +18°C° 0.4 mm 1 mps 757 mmHg 91%
    02:00 +18°C° 0.4 mm 1 mps 756 mmHg 93%
    03:00 +18°C° 0.9 mm 1 mps 756 mmHg 95%
    04:00 +18°C° 0.9 mm 1 mps 756 mmHg 96%
    05:00 +16°C° 0.9 mm 1 mps 756 mmHg 98%
    06:00 +18°C° 1 mm 1 mps 756 mmHg 98%
    07:00 +18°C° 1 mm 1 mps 756 mmHg 98%
    08:00 +18°C° 1 mm 1 mps 756 mmHg 98%
    09:00 +18°C° 0.6 mm 1 mps 756 mmHg 98%
    10:00 +18°C° 0.6 mm 1 mps 756 mmHg 98%
    11:00 +18°C° 0.6 mm 1 mps 756 mmHg 98%
    12:00 +18°C° 0.2 mm 1 mps 756 mmHg 98%
    13:00 +18°C° 0.2 mm 1 mps 756 mmHg 98%
    14:00 +19°C° 0.2 mm 1 mps 756 mmHg 98%
    15:00 +19°C° 0.2 mm 1 mps 756 mmHg 97%
    16:00 +19°C° 0.2 mm 1 mps 756 mmHg 97%
    17:00 +18°C° 0.2 mm 2 mps 756 mmHg 97%
    18:00 +17°C° 0.5 mm 2 mps 756 mmHg 98%
    19:00 +17°C° 0.5 mm 2 mps 756 mmHg 98%
    20:00 +17°C° 0.5 mm 2 mps 756 mmHg 98%
    21:00 +17°C° 0 mm 2 mps 756 mmHg 98%
    22:00 +17°C° 0 mm 2 mps 756 mmHg 97%
    23:00 +17°C° 0 mm 2 mps 757 mmHg 97%

    23 July, Tuesday

    Time Temperature Precipitation Wind Pressure Humidity
    00:00 +16°C° 0 mm 2 mps 757 mmHg 97%
    01:00 +16°C° 0 mm 2 mps 757 mmHg 97%
    02:00 +16°C° 0 mm 1 mps 757 mmHg 97%
    03:00 +16°C° 0 mm 1 mps 757 mmHg 96%
    04:00 +15°C° 0 mm 1 mps 757 mmHg 96%
    05:00 +15°C° 0 mm 1 mps 757 mmHg 96%
    06:00 +18°C° 0 mm 1 mps 757 mmHg 91%
    07:00 +19°C° 0 mm 1 mps 757 mmHg 86%
    08:00 +21°C° 0 mm 1 mps 757 mmHg 80%
    09:00 +23°C° 0 mm 1 mps 757 mmHg 69%
    10:00 +24°C° 0 mm 1 mps 757 mmHg 58%
    11:00 +26°C° 0 mm 2 mps 757 mmHg 47%
    12:00 +27°C° 0 mm 2 mps 757 mmHg 46%
    13:00 +27°C° 0 mm 2 mps 757 mmHg 44%
    14:00 +27°C° 0 mm 2 mps 757 mmHg 42%
    15:00 +27°C° 0 mm 2 mps 757 mmHg 46%
    16:00 +27°C° 0 mm 2 mps 757 mmHg 49%
    17:00 +26°C° 0 mm 2 mps 757 mmHg 52%
    18:00 +24°C° 0 mm 2 mps 756 mmHg 61%
    19:00 +23°C° 0 mm 2 mps 756 mmHg 69%
    20:00 +21°C° 0 mm 1 mps 756 mmHg 78%
    21:00 +19°C° 0 mm 1 mps 757 mmHg 83%
    22:00 +18°C° 0 mm 1 mps 757 mmHg 88%
    23:00 +16°C° 0 mm 1 mps 757 mmHg 94%

    24 July, Wednesday

    Time Temperature Precipitation Wind Pressure Humidity
    00:00 +15°C° 0 mm 1 mps 757 mmHg 95%
    01:00 +15°C° 0 mm 1 mps 757 mmHg 96%
    02:00 +15°C° 0 mm 1 mps 757 mmHg 97%
    03:00 +15°C° 0 mm 1 mps 757 mmHg 97%
    04:00 +15°C° 0 mm 1 mps 757 mmHg 97%
    05:00 +15°C° 0 mm 1 mps 757 mmHg 97%
    06:00 +16°C° 0 mm 1 mps 757 mmHg 91%
    07:00 +19°C° 0 mm 1 mps 757 mmHg 85%
    08:00 +20°C° 0 mm 2 mps 757 mmHg 78%
    09:00 +21°C° 0 mm 2 mps 757 mmHg 73%
    10:00 +23°C° 0 mm 2 mps 757 mmHg 67%
    11:00 +24°C° 0 mm 3 mps 757 mmHg 62%
    12:00 +25°C° 0.1 mm 3 mps 757 mmHg 62%
    13:00 +25°C° 0.1 mm 3 mps 757 mmHg 61%
    14:00 +25°C° 0.1 mm 3 mps 757 mmHg 61%
    15:00 +25°C° 0 mm 3 mps 757 mmHg 60%
    16:00 +25°C° 0 mm 4 mps 757 mmHg 60%
    17:00 +25°C° 0 mm 4 mps 757 mmHg 59%
    18:00 +22°C° 0 mm 3 mps 757 mmHg 67%
    19:00 +21°C° 0 mm 2 mps 757 mmHg 74%
    20:00 +19°C° 0 mm 2 mps 757 mmHg 81%
    21:00 +18°C° 0 mm 2 mps 757 mmHg 86%
    22:00 +17°C° 0 mm 2 mps 758 mmHg 91%
    23:00 +15°C° 0 mm 1 mps 758 mmHg 95%

    25 July, Thursday

    Time Temperature Precipitation Wind Pressure Humidity
    00:00 +15°C° 0 mm 1 mps 758 mmHg 95%
    01:00 +15°C° 0 mm 1 mps 758 mmHg 95%
    02:00 +15°C° 0 mm 1 mps 758 mmHg 95%
    03:00 +15°C° 0 mm 1 mps 758 mmHg 95%
    04:00 +16°C° 0 mm 1 mps 758 mmHg 94%
    05:00 +16°C° 0 mm 1 mps 758 mmHg 94%
    06:00 +18°C° 0 mm 1 mps 758 mmHg 90%
    07:00 +18°C° 0 mm 2 mps 759 mmHg 86%
    08:00 +19°C° 0 mm 2 mps 759 mmHg 83%
    09:00 +20°C° 0 mm 2 mps 759 mmHg 76%
    10:00 +22°C° 0 mm 3 mps 759 mmHg 69%
    11:00 +24°C° 0 mm 3 mps 759 mmHg 62%
    12:00 +25°C° 0 mm 3 mps 759 mmHg 56%
    13:00 +25°C° 0 mm 4 mps 759 mmHg 50%
    14:00 +26°C° 0 mm 4 mps 759 mmHg 44%
    15:00 +25°C° 0 mm 4 mps 759 mmHg 46%
    16:00 +23°C° 0 mm 4 mps 759 mmHg 49%
    17:00 +23°C° 0 mm 4 mps 759 mmHg 51%
    18:00 +21°C° 0 mm 4 mps 759 mmHg 59%
    19:00 +19°C° 0 mm 3 mps 759 mmHg 67%
    20:00 +18°C° 0 mm 2 mps 760 mmHg 75%
    21:00 +17°C° 0 mm 2 mps 760 mmHg 79%
    22:00 +16°C° 0 mm 2 mps 760 mmHg 84%
    23:00 +15°C° 0 mm 2 mps 761 mmHg 88%
    Show more